Tracking 17855 objects as of 25-September-2016
HD Live streaming from Space Station
objects crossing your sky now

TERRIERS

Track TERRIERS now!
10-day predictions
TERRIERS is classified as:


NORAD ID: 25735
Int'l Code: 1999-026A
Perigee: 441.9 km
Apogee: 441.9 km
Inclination: 97.2 °
Period: 93.3 minutes
Semi major axis: 6812 km
RCS: 0.4968 m2 (medium)
Launch date: May 18, 1999
Source: United States (US)
Launch site: Pegasus launched from Western Range Air Space (WRAS)
Your satellite tracking list
Your tracking list is empty





NASA's NSSDC Master Catalog

Two Line Element Set (TLE):
1 25735U 99026A   16269.17487692  .00003283  00000-0  74241-4 0  9994
2 25735  97.1569  72.4977 0003178 256.4257 216.1625 15.43863749965381
Source of the keplerian elements: AFSPC

N2YO: 704